Regional Weather Roundup
Issued by NWS

Home | Current Version | Previous Version | Graphics & Text | Print | Product List | Glossary On
Versions: 1 2 3 4 5 6 7 8 9 10 11 12 13 14 15 16 17 18 19 20 21 22 23 24 25 26 27 28 29 30 31 32 33 34 35 36 37 38 39 40 41 42 43 44 45 46 47 48 49 50
000
ASUS43 KOAX 220410
RWRNE

WEATHER ROUNDUP FOR NEBRASKA
NATIONAL WEATHER SERVICE OMAHA NE
1100 PM CDT WED JUN 21 2017

NOTES: SATELLITE DATA IS BEING USED TO AUGMENT CLOUD COVER ABOVE
       12000 FEET.
       "FAIR" INDICATES FEW OR NO CLOUDS BELOW 12,000 FEET WITH NO
       SIGNIFICANT WEATHER AND/OR OBSTRUCTIONS TO VISIBILITY.

  * THESE STATIONS DO NOT REPORT WEATHER SUCH AS RAIN...SNOW OR FOG.

NEZ001>004-019>022-054>056-220500-
NEBRASKA PANHANDLE

CITY           SKY/WX    TMP DP  RH WIND       PRES   REMARKS
SCOTTSBLUFF    PTCLDY    77  53  43 E5        29.80R
ALLIANCE       CLEAR     70  55  59 CALM      29.79R
CHADRON        CLEAR     71  58  63 E3        29.74R
GORDON         FAIR      72  58  62 CALM      29.76S
KIMBALL        CLEAR     70  46  42 W9        29.89S
SIDNEY         CLEAR     63  49  60 SW9       29.85R
$$

NEZ057>060-069>072-079>082-220500-
SOUTHWEST NEBRASKA

CITY           SKY/WX    TMP DP  RH WIND       PRES   REMARKS
NORTH PLATTE   CLEAR     71  57  61 NE6       29.73R
IMPERIAL       CLEAR     75  48  38 E7        29.76R
LEXINGTON      CLOUDY    80  68  67 S16       29.72R
MCCOOK         CLEAR     85  57  38 S12G18    29.72R
OGALLALA       CLEAR     74  51  45 NE3       29.75S
$$

NEZ005>010-023>029-035>040-094-220500-
NORTH CENTRAL NEBRASKA

CITY           SKY/WX    TMP DP  RH WIND       PRES   REMARKS
VALENTINE      CLEAR     80  59  48 NE6       29.71S
AINSWORTH      CLEAR     74  64  70 E7        29.72F
BROKEN BOW     CLEAR     73  69  87 CALM      29.71R
O`NEILL        PTCLDY    76  69  79 N5        29.70R
ORD            PTCLDY    80  70  71 CALM      29.67R
THEDFORD       CLEAR     77  58  51 CALM      29.74S
$$

NEZ041-046>049-061>064-073>077-083>087-220500-
SOUTH CENTRAL NEBRASKA

CITY           SKY/WX    TMP DP  RH WIND       PRES   REMARKS
GRAND ISLAND   CLOUDY    87  62  43 S22G28    29.70R
AURORA         CLOUDY    85  57  38 S16       29.71R
HASTINGS       CLOUDY    82  60  47 S18G35    29.75R
HEBRON         PTCLDY    84  55  36 S15G22    29.75R
HOLDREGE       CLOUDY    76  61  59 S22G28    29.75R
KEARNEY *      CLOUDY    82  64  54 S17G23    29.72R
YORK           CLOUDY    84  57  39 S15       29.71R
$$

NEZ011>018-030>034-042>045-220500-
NORTHEAST NEBRASKA

CITY           SKY/WX    TMP DP  RH WIND       PRES   REMARKS
NORFOLK        PTCLDY    85  66  53 S14       29.65R
ALBION         CLOUDY    86  68  55 S9        29.67S
BLAIR          CLEAR     84  58  40 S24G31    29.70R
FREMONT        CLEAR     84  58  42 S14       29.69R
TEKAMAH        MOCLDY    84  59  42 S15       29.68R
WAYNE          PTCLDY    85  70  60 S10       29.65R
$$

NEZ050>053-065>068-078-088>093-220500-
SOUTHEAST NEBRASKA

CITY           SKY/WX    TMP DP  RH WIND       PRES   REMARKS
LINCOLN        PTCLDY    83  59  44 S17G28    29.70R
OMAHA EPPLEY   PTCLDY    85  59  41 S20G25    29.70R
BEATRICE       CLOUDY    82  60  46 S20G30    29.74R
FALLS CITY     CLEAR     80  63  55 S12       29.77R
NEBRASKA CITY  CLEAR     80  63  54 S17G24    29.74R
PLATTSMOUTH    CLEAR     81  57  44 S18G24    29.73R
$$

NEZ044-045-051>053-067-220500-
OMAHA AREA

CITY           SKY/WX    TMP DP  RH WIND       PRES   REMARKS
OMAHA EPPLEY   PTCLDY    85  59  41 S20G25    29.70R
BLAIR          CLEAR     84  58  40 S24G31    29.70R
FREMONT        CLEAR     84  58  42 S14       29.69R
MILLARD        CLEAR     86  61  42 S10G20    29.71R
OFFUTT AFB     CLEAR     83  58  42 S14G22    29.71R
PLATTSMOUTH    CLEAR     81  57  44 S18G24    29.73R
WAHOO          FAIR      82  57  42 S14       29.70R
$$




USA.gov is the U.S. government's official web portal to all federal, state and local government web resources and services.